Tabellarische Ansicht des 17.5.2012


Die einzelnen Werte des Tages

Uhrzeit Temperatur Luftdruck Luftfeuchte Wind Hi-Wind Taupunkt THW Index Wind Chill Heat Index Solar- strahlung Regen

00:00

5.5 C

1020.7 hpa

82 %

3.2 km/h aus 117

9.7 km/h aus WSW

2.7 C

5.3 C

5.5 C

5.3 C

0 W/m

0.00 mm

00:05

5.4 C

1020.7 hpa

82 %

1.6 km/h aus 115

9.7 km/h aus WSW

2.6 C

5.2 C

5.4 C

5.2 C

0 W/m

0.00 mm

00:10

5.3 C

1020.7 hpa

83 %

3.2 km/h aus 116

6.4 km/h aus WSW

2.6 C

5.2 C

5.3 C

5.2 C

0 W/m

0.00 mm

00:15

5.2 C

1020.7 hpa

83 %

3.2 km/h aus 117

6.4 km/h aus WSW

2.5 C

5.0 C

5.1 C

5.1 C

0 W/m

0.00 mm

00:20

5.1 C

1020.7 hpa

83 %

3.2 km/h aus 116

6.4 km/h aus WSW

2.4 C

4.9 C

5.0 C

4.9 C

0 W/m

0.00 mm

00:25

5.1 C

1020.7 hpa

83 %

3.2 km/h aus 117

11.3 km/h aus WSW

2.4 C

4.9 C

5.0 C

4.9 C

0 W/m

0.00 mm

00:30

5.1 C

1020.8 hpa

83 %

3.2 km/h aus 116

9.7 km/h aus WSW

2.4 C

4.9 C

5.0 C

4.9 C

0 W/m

0.00 mm

00:35

5.2 C

1020.8 hpa

82 %

3.2 km/h aus 118

8.0 km/h aus WSW

2.3 C

4.9 C

5.1 C

5.0 C

0 W/m

0.00 mm

00:40

5.1 C

1020.8 hpa

82 %

3.2 km/h aus 116

6.4 km/h aus WSW

2.2 C

4.8 C

5.0 C

4.9 C

0 W/m

0.00 mm

00:45

5.1 C

1020.7 hpa

82 %

3.2 km/h aus 117

9.7 km/h aus WSW

2.2 C

4.8 C

5.0 C

4.9 C

0 W/m

0.00 mm

00:50

4.8 C

1020.7 hpa

82 %

1.6 km/h aus 117

4.8 km/h aus WSW

2.0 C

4.7 C

4.8 C

4.7 C

0 W/m

0.00 mm

00:55

4.7 C

1020.7 hpa

83 %

3.2 km/h aus 116

8.0 km/h aus WSW

2.0 C

4.4 C

4.6 C

4.6 C

0 W/m

0.00 mm

01:00

4.7 C

1020.7 hpa

83 %

3.2 km/h aus 117

8.0 km/h aus WSW

2.1 C

4.5 C

4.6 C

4.6 C

0 W/m

0.00 mm

01:05

4.7 C

1020.7 hpa

82 %

3.2 km/h aus 116

6.4 km/h aus WSW

1.9 C

4.4 C

4.6 C

4.5 C

0 W/m

0.00 mm

01:10

4.7 C

1020.7 hpa

82 %

3.2 km/h aus 116

6.4 km/h aus WSW

1.9 C

4.4 C

4.6 C

4.6 C

0 W/m

0.00 mm

01:15

4.4 C

1020.8 hpa

82 %

1.6 km/h aus 117

6.4 km/h aus WSW

1.6 C

4.2 C

4.4 C

4.2 C

0 W/m

0.00 mm

01:20

3.9 C

1020.8 hpa

83 %

1.6 km/h aus 115

3.2 km/h aus WSW

1.3 C

3.8 C

3.9 C

3.8 C

0 W/m

0.00 mm

01:25

3.5 C

1020.8 hpa

84 %

1.6 km/h aus 116

3.2 km/h aus WSW

1.0 C

3.4 C

3.5 C

3.4 C

0 W/m

0.00 mm

01:30

3.2 C

1020.8 hpa

85 %

1.6 km/h aus 117

3.2 km/h aus WSW

0.9 C

3.1 C

3.2 C

3.1 C

0 W/m

0.00 mm

01:35

2.9 C

1020.8 hpa

86 %

3.2 km/h aus 115

4.8 km/h aus WSW

0.8 C

2.6 C

2.7 C

2.8 C

0 W/m

0.00 mm

01:40

2.8 C

1020.8 hpa

87 %

1.6 km/h aus 118

3.2 km/h aus WSW

0.8 C

2.7 C

2.8 C

2.7 C

0 W/m

0.00 mm

01:45

2.6 C

1020.8 hpa

87 %

1.6 km/h aus 116

3.2 km/h aus WSW

0.7 C

2.5 C

2.6 C

2.5 C

0 W/m

0.00 mm

01:50

2.5 C

1020.8 hpa

88 %

1.6 km/h aus 117

4.8 km/h aus WSW

0.7 C

2.4 C

2.5 C

2.4 C

0 W/m

0.00 mm

01:55

2.6 C

1020.8 hpa

88 %

1.6 km/h aus 116

4.8 km/h aus WSW

0.8 C

2.6 C

2.6 C

2.6 C

0 W/m

0.00 mm

02:00

2.5 C

1020.8 hpa

89 %

1.6 km/h aus 116

3.2 km/h aus WSW

0.9 C

2.4 C

2.5 C

2.4 C

0 W/m

0.00 mm

02:05

2.3 C

1020.8 hpa

88 %

1.6 km/h aus 116

3.2 km/h aus WSW

0.5 C

2.3 C

2.3 C

2.3 C

0 W/m

0.00 mm

02:10

2.2 C

1020.8 hpa

89 %

1.6 km/h aus 116

4.8 km/h aus WSW

0.5 C

2.1 C

2.2 C

2.1 C

0 W/m

0.00 mm

02:15

2.2 C

1020.8 hpa

89 %

1.6 km/h aus 117

4.8 km/h aus WSW

0.5 C

2.1 C

2.2 C

2.1 C

0 W/m

0.00 mm

02:20

2.4 C

1020.8 hpa

90 %

1.6 km/h aus 116

3.2 km/h aus WSW

0.9 C

2.3 C

2.4 C

2.3 C

0 W/m

0.00 mm

02:25

2.4 C

1020.8 hpa

90 %

1.6 km/h aus 117

4.8 km/h aus WSW

1.0 C

2.4 C

2.4 C

2.4 C

0 W/m

0.00 mm

02:30

2.4 C

1020.7 hpa

90 %

1.6 km/h aus 116

3.2 km/h aus WSW

0.9 C

2.3 C

2.4 C

2.3 C

0 W/m

0.00 mm

02:35

2.4 C

1020.7 hpa

90 %

3.2 km/h aus 117

4.8 km/h aus WSW

1.0 C

2.1 C

2.1 C

2.4 C

0 W/m

0.00 mm

02:40

2.4 C

1020.7 hpa

89 %

3.2 km/h aus 117

6.4 km/h aus WSW

0.8 C

2.0 C

2.1 C

2.3 C

0 W/m

0.00 mm

02:45

2.3 C

1020.7 hpa

89 %

3.2 km/h aus 118

4.8 km/h aus WSW

0.7 C

1.9 C

1.9 C

2.2 C

0 W/m

0.00 mm

02:50

2.2 C

1020.7 hpa

90 %

3.2 km/h aus 116

6.4 km/h aus WSW

0.7 C

1.8 C

1.8 C

2.1 C

0 W/m

0.00 mm

02:55

2.2 C

1020.7 hpa

90 %

3.2 km/h aus 116

4.8 km/h aus WSW

0.7 C

1.8 C

1.8 C

2.1 C

0 W/m

0.00 mm

03:00

2.2 C

1020.7 hpa

90 %

3.2 km/h aus 116

6.4 km/h aus WSW

0.7 C

1.8 C

1.8 C

2.1 C

0 W/m

0.00 mm

03:05

2.1 C

1020.7 hpa

90 %

3.2 km/h aus 117

4.8 km/h aus WSW

0.6 C

1.6 C

1.7 C

2.0 C

0 W/m

0.00 mm

03:10

2.0 C

1020.7 hpa

90 %

3.2 km/h aus 117

6.4 km/h aus WSW

0.5 C

1.6 C

1.6 C

1.9 C

0 W/m

0.00 mm

03:15

1.9 C

1020.7 hpa

90 %

3.2 km/h aus 117

6.4 km/h aus WSW

0.5 C

1.5 C

1.6 C

1.9 C

0 W/m

0.00 mm

03:20

2.1 C

1020.7 hpa

90 %

3.2 km/h aus 116

4.8 km/h aus WSW

0.6 C

1.6 C

1.7 C

2.0 C

0 W/m

0.00 mm

03:25

1.9 C

1020.7 hpa

90 %

3.2 km/h aus 117

6.4 km/h aus WSW

0.4 C

1.4 C

1.5 C

1.8 C

0 W/m

0.00 mm

03:30

2.0 C

1020.7 hpa

90 %

4.8 km/h aus 117

8.0 km/h aus WSW

0.5 C

0.7 C

0.8 C

1.9 C

0 W/m

0.00 mm

03:35

2.1 C

1020.7 hpa

90 %

3.2 km/h aus 117

8.0 km/h aus WSW

0.6 C

1.6 C

1.7 C

2.0 C

0 W/m

0.00 mm

03:40

2.2 C

1020.7 hpa

90 %

4.8 km/h aus 116

8.0 km/h aus WSW

0.7 C

0.9 C

0.9 C

2.1 C

0 W/m

0.00 mm

03:45

2.3 C

1020.7 hpa

90 %

3.2 km/h aus 115

6.4 km/h aus WSW

0.8 C

1.9 C

1.9 C

2.2 C

0 W/m

0.00 mm

03:50

2.2 C

1020.7 hpa

90 %

3.2 km/h aus 118

6.4 km/h aus WSW

0.8 C

1.8 C

1.9 C

2.2 C

0 W/m

0.00 mm

03:55

2.1 C

1020.7 hpa

89 %

3.2 km/h aus 117

4.8 km/h aus WSW

0.4 C

1.6 C

1.7 C

2.0 C

0 W/m

0.00 mm

04:00

1.8 C

1020.7 hpa

89 %

1.6 km/h aus 117

3.2 km/h aus WSW

0.2 C

1.8 C

1.8 C

1.8 C

0 W/m

0.00 mm

04:05

1.7 C

1020.7 hpa

90 %

1.6 km/h aus 116

3.2 km/h aus WSW

0.2 C

1.6 C

1.7 C

1.6 C

0 W/m

0.00 mm

04:10

1.3 C

1020.7 hpa

89 %

0.0 km/h aus 117

3.2 km/h aus WSW

-0.3 C

1.2 C

1.3 C

1.2 C

0 W/m

0.00 mm

04:15

1.3 C

1020.8 hpa

90 %

0.0 km/h aus 117

3.2 km/h aus WSW

-0.1 C

1.2 C

1.3 C

1.2 C

0 W/m

0.00 mm

04:20

1.3 C

1020.8 hpa

90 %

1.6 km/h aus 117

4.8 km/h aus WSW

-0.1 C

1.2 C

1.3 C

1.2 C

0 W/m

0.00 mm

04:25

1.3 C

1020.8 hpa

91 %

3.2 km/h aus 116

6.4 km/h aus WSW

0.0 C

0.8 C

0.9 C

1.3 C

0 W/m

0.00 mm

04:30

1.3 C

1020.6 hpa

91 %

3.2 km/h aus 117

4.8 km/h aus WSW

0.0 C

0.8 C

0.9 C

1.3 C

0 W/m

0.00 mm

04:35

1.5 C

1020.6 hpa

91 %

3.2 km/h aus 117

4.8 km/h aus WSW

0.2 C

1.0 C

1.1 C

1.4 C

0 W/m

0.00 mm

04:40

1.6 C

1020.6 hpa

91 %

3.2 km/h aus 116

6.4 km/h aus WSW

0.2 C

1.1 C

1.1 C

1.5 C

0 W/m

0.00 mm

04:45

1.3 C

1020.5 hpa

91 %

1.6 km/h aus 117

4.8 km/h aus WSW

0.0 C

1.3 C

1.3 C

1.3 C

0 W/m

0.00 mm

04:50

1.3 C

1020.5 hpa

91 %

1.6 km/h aus 116

3.2 km/h aus WSW

0.0 C

1.3 C

1.3 C

1.3 C

0 W/m

0.00 mm

04:55

1.3 C

1020.5 hpa

91 %

1.6 km/h aus 117

4.8 km/h aus WSW

0.0 C

1.3 C

1.3 C

1.3 C

0 W/m

0.00 mm

05:00

1.4 C

1020.6 hpa

91 %

3.2 km/h aus 115

4.8 km/h aus WSW

0.1 C

0.9 C

1.0 C

1.4 C

0 W/m

0.00 mm

05:05

1.4 C

1020.6 hpa

91 %

3.2 km/h aus 116

4.8 km/h aus WSW

0.1 C

0.9 C

1.0 C

1.4 C

0 W/m

0.00 mm

05:10

1.3 C

1020.6 hpa

91 %

1.6 km/h aus 116

4.8 km/h aus WSW

0.0 C

1.3 C

1.3 C

1.3 C

0 W/m

0.00 mm

05:15

1.0 C

1020.7 hpa

91 %

1.6 km/h aus 116

3.2 km/h aus WSW

-0.3 C

0.9 C

1.0 C

0.9 C

0 W/m

0.00 mm

05:20

0.8 C

1020.7 hpa

91 %

3.2 km/h aus 117

6.4 km/h aus WSW

-0.5 C

0.2 C

0.3 C

0.7 C

0 W/m

0.00 mm

05:25

0.7 C

1020.7 hpa

91 %

1.6 km/h aus 117

4.8 km/h aus WSW

-0.6 C

0.6 C

0.7 C

0.6 C

0 W/m

0.00 mm

05:30

0.7 C

1020.7 hpa

91 %

1.6 km/h aus 117

3.2 km/h aus WSW

-0.6 C

0.6 C

0.7 C

0.6 C

0 W/m

0.00 mm

05:35

0.7 C

1020.7 hpa

91 %

3.2 km/h aus 117

4.8 km/h aus WSW

-0.6 C

0.1 C

0.2 C

0.6 C

0 W/m

0.00 mm

05:40

0.8 C

1020.7 hpa

91 %

3.2 km/h aus 117

6.4 km/h aus WSW

-0.5 C

0.2 C

0.3 C

0.7 C

0 W/m

0.00 mm

05:45

0.7 C

1020.7 hpa

91 %

3.2 km/h aus 117

3.2 km/h aus WSW

-0.6 C

0.1 C

0.2 C

0.6 C

0 W/m

0.00 mm

05:50

0.7 C

1020.7 hpa

92 %

3.2 km/h aus 117

4.8 km/h aus WSW

-0.5 C

0.1 C

0.2 C

0.6 C

0 W/m

0.00 mm

05:55

0.7 C

1020.7 hpa

92 %

4.8 km/h aus 117

6.4 km/h aus WSW

-0.5 C

-0.8 C

-0.7 C

0.6 C

0 W/m

0.00 mm

06:00

0.8 C

1020.7 hpa

92 %

3.2 km/h aus 118

6.4 km/h aus WSW

-0.4 C

0.2 C

0.3 C

0.7 C

0 W/m

0.00 mm

06:05

0.9 C

1020.7 hpa

92 %

3.2 km/h aus 117

4.8 km/h aus WSW

-0.3 C

0.3 C

0.4 C

0.8 C

0 W/m

0.00 mm

06:10

0.9 C

1020.7 hpa

92 %

3.2 km/h aus 117

4.8 km/h aus WSW

-0.2 C

0.3 C

0.4 C

0.8 C

0 W/m

0.00 mm

06:15

1.1 C

1020.7 hpa

92 %

4.8 km/h aus 117

6.4 km/h aus WSW

-0.1 C

-0.4 C

-0.3 C

0.9 C

0 W/m

0.00 mm

06:20

1.1 C

1020.7 hpa

92 %

4.8 km/h aus 115

6.4 km/h aus WSW

-0.1 C

-0.4 C

-0.3 C

0.9 C

0 W/m

0.00 mm

06:25

1.3 C

1020.7 hpa

92 %

3.2 km/h aus 117

6.4 km/h aus WSW

0.1 C

0.8 C

0.8 C

1.2 C

0 W/m

0.00 mm

06:30

1.4 C

1020.7 hpa

93 %

4.8 km/h aus 117

8.0 km/h aus WSW

0.4 C

0.1 C

0.2 C

1.4 C

0 W/m

0.00 mm

06:35

1.7 C

1020.7 hpa

93 %

6.4 km/h aus 117

9.7 km/h aus WSW

0.7 C

-0.2 C

-0.2 C

1.7 C

0 W/m

0.00 mm

06:40

2.1 C

1020.7 hpa

93 %

6.4 km/h aus 116

9.7 km/h aus WSW

1.0 C

0.2 C

0.2 C

2.1 C

0 W/m

0.00 mm

06:45

2.3 C

1020.8 hpa

93 %

4.8 km/h aus 117

9.7 km/h aus WSW

1.3 C

1.2 C

1.2 C

2.3 C

0 W/m

0.00 mm

06:50

2.7 C

1020.8 hpa

93 %

6.4 km/h aus 115

11.3 km/h aus SSW

1.6 C

0.9 C

0.9 C

2.7 C

0 W/m

0.00 mm

06:55

2.9 C

1020.8 hpa

93 %

6.4 km/h aus 117

11.3 km/h aus SSW

1.9 C

1.2 C

1.2 C

2.9 C

0 W/m

0.00 mm

07:00

3.3 C

1020.7 hpa

93 %

6.4 km/h aus 117

9.7 km/h aus SSW

2.3 C

1.6 C

1.6 C

3.3 C

0 W/m

0.00 mm

07:05

3.6 C

1020.7 hpa

93 %

6.4 km/h aus 117

11.3 km/h aus SSW

2.6 C

2.0 C

2.0 C

3.6 C

0 W/m

0.00 mm

07:10

3.8 C

1020.7 hpa

92 %

8.0 km/h aus 117

9.7 km/h aus SSW

2.7 C

1.7 C

1.8 C

3.8 C

0 W/m

0.00 mm

07:15

4.2 C

1020.8 hpa

92 %

6.4 km/h aus 116

11.3 km/h aus SSW

3.0 C

2.6 C

2.6 C

4.2 C

0 W/m

0.00 mm

07:20

4.6 C

1020.8 hpa

92 %

6.4 km/h aus 117

9.7 km/h aus SSW

3.4 C

3.1 C

3.1 C

4.6 C

0 W/m

0.00 mm

07:25

4.9 C

1020.8 hpa

91 %

6.4 km/h aus 117

14.5 km/h aus SSW

3.5 C

3.4 C

3.5 C

4.8 C

0 W/m

0.00 mm

07:30

5.2 C

1020.7 hpa

91 %

6.4 km/h aus 117

16.1 km/h aus SW

3.8 C

3.8 C

3.8 C

5.2 C

0 W/m

0.00 mm

07:35

5.5 C

1020.7 hpa

88 %

9.7 km/h aus 117

19.3 km/h aus SSW

3.7 C

3.3 C

3.3 C

5.4 C

0 W/m

0.00 mm

07:40

5.9 C

1020.7 hpa

86 %

8.0 km/h aus 117

19.3 km/h aus SW

3.7 C

4.1 C

4.2 C

5.8 C

0 W/m

0.00 mm

07:45

6.1 C

1020.7 hpa

84 %

8.0 km/h aus 115

24.1 km/h aus SW

3.6 C

4.4 C

4.4 C

6.1 C

0 W/m

0.00 mm

07:50

6.3 C

1020.7 hpa

81 %

11.3 km/h aus 117

24.1 km/h aus SW

3.3 C

3.9 C

4.0 C

6.2 C

0 W/m

0.00 mm

07:55

6.5 C

1020.7 hpa

80 %

9.7 km/h aus 117

17.7 km/h aus SSW

3.3 C

4.4 C

4.5 C

6.4 C

0 W/m

0.00 mm

08:00

6.7 C

1020.6 hpa

79 %

9.7 km/h aus 116

17.7 km/h aus SSW

3.3 C

4.6 C

4.7 C

6.6 C

0 W/m

0.00 mm

08:05

6.8 C

1020.6 hpa

77 %

8.0 km/h aus 117

17.7 km/h aus SSW

3.1 C

5.1 C

5.3 C

6.7 C

0 W/m

0.00 mm

08:10

7.1 C

1020.6 hpa

77 %

8.0 km/h aus 117

17.7 km/h aus SW

3.3 C

5.4 C

5.6 C

6.9 C

0 W/m

0.00 mm

08:15

7.2 C

1020.6 hpa

76 %

8.0 km/h aus 117

17.7 km/h aus SW

3.3 C

5.5 C

5.7 C

7.0 C

0 W/m

0.00 mm

08:20

7.4 C

1020.6 hpa

76 %

6.4 km/h aus 117

16.1 km/h aus SW

3.5 C

6.2 C

6.4 C

7.2 C

0 W/m

0.00 mm

08:25

7.4 C

1020.6 hpa

75 %

9.7 km/h aus 117

19.3 km/h aus SSW

3.3 C

5.4 C

5.7 C

7.2 C

0 W/m

0.00 mm

08:30

7.6 C

1020.5 hpa

74 %

9.7 km/h aus 116

17.7 km/h aus SW

3.3 C

5.6 C

5.8 C

7.4 C

0 W/m

0.00 mm

08:35

7.7 C

1020.5 hpa

74 %

11.3 km/h aus 117

19.3 km/h aus SW

3.3 C

5.4 C

5.7 C

7.4 C

0 W/m

0.00 mm

08:40

7.8 C

1020.5 hpa

74 %

8.0 km/h aus 117

19.3 km/h aus SW

3.4 C

6.2 C

6.4 C

7.6 C

0 W/m

0.00 mm

08:45

8.2 C

1020.6 hpa

73 %

4.8 km/h aus 116

16.1 km/h aus WSW

3.6 C

7.6 C

7.8 C

7.9 C

0 W/m

0.00 mm

08:50

8.3 C

1020.6 hpa

73 %

8.0 km/h aus 117

19.3 km/h aus SSW

3.7 C

6.8 C

7.0 C

8.1 C

0 W/m

0.00 mm

08:55

8.3 C

1020.6 hpa

72 %

11.3 km/h aus 117

20.9 km/h aus SSW

3.6 C

6.2 C

6.4 C

8.1 C

0 W/m

0.00 mm

09:00

8.3 C

1020.6 hpa

72 %

11.3 km/h aus 117

20.9 km/h aus SW

3.5 C

6.2 C

6.4 C

8.1 C

0 W/m

0.00 mm

09:05

8.4 C

1020.6 hpa

72 %

9.7 km/h aus 117

19.3 km/h aus SSW

3.7 C

6.6 C

6.8 C

8.2 C

0 W/m

0.00 mm

09:10

8.8 C

1020.6 hpa

71 %

8.0 km/h aus 117

17.7 km/h aus SSW

3.8 C

7.3 C

7.6 C

8.5 C

0 W/m

0.00 mm

09:15

8.8 C

1020.5 hpa

70 %

9.7 km/h aus 116

17.7 km/h aus SSW

3.7 C

7.1 C

7.3 C

8.6 C

0 W/m

0.00 mm

09:20

8.9 C

1020.5 hpa

71 %

6.4 km/h aus 117

16.1 km/h aus S

3.9 C

7.8 C

8.1 C

8.6 C

0 W/m

0.00 mm

09:25

8.9 C

1020.5 hpa

69 %

8.0 km/h aus 117

19.3 km/h aus SSW

3.5 C

7.4 C

7.7 C

8.6 C

0 W/m

0.00 mm

09:30

9.0 C

1020.3 hpa

69 %

6.4 km/h aus 117

19.3 km/h aus SSW

3.6 C

7.9 C

8.2 C

8.7 C

0 W/m

0.00 mm

09:35

9.2 C

1020.3 hpa

72 %

8.0 km/h aus 117

17.7 km/h aus S

4.4 C

7.9 C

8.1 C

9.0 C

0 W/m

0.00 mm

09:40

9.6 C

1020.3 hpa

69 %

6.4 km/h aus 117

16.1 km/h aus SSE

4.1 C

8.6 C

8.8 C

9.3 C

0 W/m

0.00 mm

09:45

9.6 C

1020.3 hpa

67 %

9.7 km/h aus 117

16.1 km/h aus S

3.7 C

7.9 C

8.2 C

9.3 C

0 W/m

0.00 mm

09:50

9.8 C

1020.3 hpa

66 %

4.8 km/h aus 117

11.3 km/h aus WSW

3.7 C

9.2 C

9.6 C

9.4 C

0 W/m

0.00 mm

09:55

9.8 C

1020.3 hpa

64 %

4.8 km/h aus 117

14.5 km/h aus SW

3.3 C

9.3 C

9.6 C

9.5 C

0 W/m

0.00 mm

10:00

10.1 C

1020.2 hpa

65 %

8.0 km/h aus 117

19.3 km/h aus S

3.8 C

8.7 C

9.1 C

9.7 C

0 W/m

0.00 mm

10:05

10.1 C

1020.2 hpa

64 %

8.0 km/h aus 116

14.5 km/h aus WSW

3.5 C

8.7 C

9.1 C

9.7 C

0 W/m

0.00 mm

10:10

10.3 C

1020.2 hpa

61 %

8.0 km/h aus 117

19.3 km/h aus SSW

3.1 C

8.9 C

9.3 C

9.8 C

0 W/m

0.00 mm

10:15

10.4 C

1020.2 hpa

62 %

8.0 km/h aus 117

17.7 km/h aus S

3.5 C

9.1 C

9.6 C

10.0 C

0 W/m

0.00 mm

10:20

10.4 C

1020.2 hpa

59 %

9.7 km/h aus 117

17.7 km/h aus S

2.8 C

8.8 C

9.3 C

9.9 C

0 W/m

0.00 mm

10:25

10.6 C

1020.2 hpa

59 %

6.4 km/h aus 117

19.3 km/h aus SSW

2.9 C

9.5 C

10.1 C

10.1 C

0 W/m

0.00 mm

10:30

10.7 C

1020.0 hpa

59 %

8.0 km/h aus 117

17.7 km/h aus S

3.0 C

9.3 C

9.9 C

10.2 C

0 W/m

0.00 mm

10:35

10.9 C

1020.0 hpa

57 %

8.0 km/h aus 117

19.3 km/h aus SSW

2.7 C

9.4 C

10.1 C

10.3 C

0 W/m

0.00 mm

10:40

10.9 C

1020.0 hpa

58 %

8.0 km/h aus 117

19.3 km/h aus SW

3.0 C

9.6 C

10.1 C

10.4 C

0 W/m

0.00 mm

10:45

11.2 C

1019.9 hpa

54 %

8.0 km/h aus 117

22.5 km/h aus WNW

2.2 C

9.7 C

10.4 C

10.4 C

0 W/m

0.00 mm

10:50

10.9 C

1019.9 hpa

53 %

9.7 km/h aus 117

25.7 km/h aus SW

1.7 C

9.1 C

9.8 C

10.2 C

0 W/m

0.00 mm

10:55

11.3 C

1019.9 hpa

55 %

6.4 km/h aus 117

19.3 km/h aus SSW

2.6 C

10.1 C

10.8 C

10.6 C

0 W/m

0.00 mm

11:00

11.3 C

1020.0 hpa

55 %

12.9 km/h aus 116

25.7 km/h aus SSW

2.6 C

8.9 C

9.6 C

10.6 C

0 W/m

0.00 mm

11:05

11.4 C

1020.0 hpa

54 %

9.7 km/h aus 117

19.3 km/h aus WSW

2.5 C

9.6 C

10.4 C

10.7 C

0 W/m

0.00 mm

11:10

11.8 C

1020.0 hpa

58 %

8.0 km/h aus 117

24.1 km/h aus W

3.8 C

10.5 C

11.2 C

11.2 C

0 W/m

0.00 mm

11:15

11.8 C

1019.8 hpa

55 %

11.3 km/h aus 118

22.5 km/h aus WSW

3.0 C

9.8 C

10.6 C

11.0 C

0 W/m

0.00 mm

11:20

11.4 C

1019.8 hpa

56 %

8.0 km/h aus 117

16.1 km/h aus W

3.0 C

10.0 C

10.7 C

10.7 C

0 W/m

0.00 mm

11:25

11.7 C

1019.8 hpa

59 %

6.4 km/h aus 116

17.7 km/h aus NW

4.0 C

10.7 C

11.3 C

11.1 C

0 W/m

0.00 mm

11:30

11.7 C

1019.7 hpa

55 %

6.4 km/h aus 117

16.1 km/h aus SW

3.0 C

10.6 C

11.3 C

10.9 C

0 W/m

0.00 mm

11:35

11.1 C

1019.7 hpa

57 %

8.0 km/h aus 117

20.9 km/h aus SSW

2.9 C

9.7 C

10.3 C

10.5 C

0 W/m

0.00 mm

11:40

11.4 C

1019.7 hpa

61 %

4.8 km/h aus 117

8.0 km/h aus WSW

4.2 C

10.9 C

11.4 C

10.9 C

0 W/m

0.00 mm

11:45

11.6 C

1019.6 hpa

55 %

6.4 km/h aus 115

20.9 km/h aus SW

2.9 C

10.4 C

11.2 C

10.8 C

0 W/m

0.00 mm

11:50

11.1 C

1019.6 hpa

57 %

8.0 km/h aus 116

19.3 km/h aus W

2.9 C

9.7 C

10.3 C

10.4 C

0 W/m

0.00 mm

11:55

11.3 C

1019.6 hpa

58 %

4.8 km/h aus 117

11.3 km/h aus SW

3.4 C

10.7 C

11.3 C

10.7 C

0 W/m

0.00 mm

12:00

11.9 C

1019.4 hpa

55 %

8.0 km/h aus 117

14.5 km/h aus WSW

3.2 C

10.5 C

11.3 C

11.2 C

0 W/m

0.00 mm

12:05

11.9 C

1019.4 hpa

59 %

6.4 km/h aus 117

14.5 km/h aus SSW

4.2 C

10.9 C

11.6 C

11.3 C

0 W/m

0.00 mm

12:10

12.4 C

1019.4 hpa

55 %

4.8 km/h aus 116

11.3 km/h aus WSW

3.6 C

11.7 C

12.4 C

11.7 C

0 W/m

0.00 mm

12:15

12.1 C

1019.2 hpa

59 %

8.0 km/h aus 117

17.7 km/h aus SW

4.3 C

10.7 C

11.4 C

11.4 C

0 W/m

0.00 mm

12:20

11.6 C

1019.2 hpa

55 %

9.7 km/h aus 117

19.3 km/h aus SSW

2.8 C

9.8 C

10.6 C

10.8 C

0 W/m

0.00 mm

12:25

12.2 C

1019.2 hpa

55 %

4.8 km/h aus 117

9.7 km/h aus W

3.4 C

11.4 C

12.2 C

11.4 C

0 W/m

0.00 mm

12:30

12.3 C

1019.2 hpa

51 %

8.0 km/h aus 116

17.7 km/h aus SSW

2.4 C

10.7 C

11.7 C

11.3 C

0 W/m

0.00 mm

12:35

11.8 C

1019.2 hpa

54 %

3.2 km/h aus 115

8.0 km/h aus W

2.8 C

11.1 C

11.8 C

11.1 C

0 W/m

0.00 mm

12:40

11.6 C

1019.2 hpa

55 %

6.4 km/h aus 117

14.5 km/h aus WSW

2.9 C

10.4 C

11.2 C

10.8 C

0 W/m

0.00 mm

12:45

12.0 C

1019.1 hpa

54 %

3.2 km/h aus 116

9.7 km/h aus W

3.0 C

11.2 C

12.0 C

11.2 C

0 W/m

0.00 mm

12:50

12.7 C

1019.1 hpa

54 %

8.0 km/h aus 116

24.1 km/h aus W

3.6 C

11.3 C

12.2 C

11.8 C

0 W/m

0.00 mm

12:55

12.6 C

1019.1 hpa

53 %

9.7 km/h aus 117

17.7 km/h aus WSW

3.2 C

10.8 C

11.7 C

11.7 C

0 W/m

0.00 mm

13:00

12.2 C

1018.9 hpa

54 %

4.8 km/h aus 116

11.3 km/h aus WNW

3.1 C

11.3 C

12.2 C

11.3 C

0 W/m

0.00 mm

13:05

12.2 C

1018.9 hpa

56 %

3.2 km/h aus 115

9.7 km/h aus WSW

3.6 C

11.4 C

12.2 C

11.4 C

0 W/m

0.00 mm

13:10

12.2 C

1018.9 hpa

55 %

9.7 km/h aus 116

16.1 km/h aus SSW

3.4 C

10.5 C

11.3 C

11.4 C

0 W/m

0.00 mm

13:15

13.5 C

1018.7 hpa

55 %

9.7 km/h aus 117

16.1 km/h aus S

4.6 C

12.0 C

12.9 C

12.6 C

0 W/m

0.00 mm

13:20

13.1 C

1018.7 hpa

55 %

4.8 km/h aus 117

16.1 km/h aus NW

4.3 C

12.2 C

13.1 C

12.2 C

0 W/m

0.00 mm

13:25

12.7 C

1018.7 hpa

55 %

3.2 km/h aus 117

9.7 km/h aus SSW

3.9 C

11.9 C

12.7 C

11.9 C

0 W/m

0.00 mm

13:30

13.2 C

1018.6 hpa

60 %

9.7 km/h aus 117

19.3 km/h aus SSE

5.6 C

11.7 C

12.4 C

12.4 C

0 W/m

0.00 mm

13:35

12.8 C

1018.6 hpa

52 %

9.7 km/h aus 117

17.7 km/h aus SW

3.2 C

11.1 C

12.0 C

11.8 C

0 W/m

0.00 mm

13:40

12.3 C

1018.6 hpa

55 %

4.8 km/h aus 117

14.5 km/h aus W

3.5 C

11.6 C

12.3 C

11.6 C

0 W/m

0.00 mm

13:45

12.1 C

1018.7 hpa

55 %

6.4 km/h aus 116

19.3 km/h aus W

3.3 C

11.1 C

11.8 C

11.3 C

0 W/m

0.00 mm

13:50

12.1 C

1018.7 hpa

55 %

3.2 km/h aus 117

8.0 km/h aus W

3.3 C

11.3 C

12.1 C

11.3 C

0 W/m

0.00 mm

13:55

12.0 C

1018.7 hpa

55 %

4.8 km/h aus 117

14.5 km/h aus SW

3.2 C

11.2 C

12.0 C

11.2 C

0 W/m

0.00 mm

14:00

12.0 C

1018.6 hpa

57 %

4.8 km/h aus 115

12.9 km/h aus WSW

3.7 C

11.3 C

12.0 C

11.3 C

0 W/m

0.00 mm

14:05

12.1 C

1018.6 hpa

55 %

9.7 km/h aus 116

19.3 km/h aus WNW

3.3 C

10.3 C

11.1 C

11.3 C

0 W/m

0.00 mm

14:10

11.9 C

1018.6 hpa

55 %

6.4 km/h aus 117

11.3 km/h aus WNW

3.1 C

10.8 C

11.6 C

11.1 C

0 W/m

0.00 mm

14:15

12.0 C

1018.6 hpa

55 %

6.4 km/h aus 116

12.9 km/h aus WSW

3.2 C

10.9 C

11.7 C

11.2 C

0 W/m

0.00 mm

14:20

12.1 C

1018.6 hpa

56 %

3.2 km/h aus 117

8.0 km/h aus SW

3.5 C

11.3 C

12.1 C

11.3 C

0 W/m

0.00 mm

14:25

12.2 C

1018.6 hpa

56 %

1.6 km/h aus 118

6.4 km/h aus SW

3.7 C

11.4 C

12.2 C

11.4 C

0 W/m

0.00 mm

14:30

12.4 C

1018.3 hpa

55 %

4.8 km/h aus 114

9.7 km/h aus SW

3.6 C

11.6 C

12.4 C

11.6 C

0 W/m

0.00 mm

14:35

12.4 C

1018.3 hpa

57 %

3.2 km/h aus 117

11.3 km/h aus SW

4.2 C

11.7 C

12.4 C

11.7 C

0 W/m

0.00 mm

14:40

12.7 C

1018.3 hpa

53 %

4.8 km/h aus 117

9.7 km/h aus SW

3.3 C

11.8 C

12.7 C

11.8 C

0 W/m

0.00 mm

14:45

12.9 C

1018.2 hpa

54 %

4.8 km/h aus 116

9.7 km/h aus SSW

3.8 C

12.1 C

12.9 C

12.1 C

0 W/m

0.00 mm

14:50

13.2 C

1018.2 hpa

54 %

1.6 km/h aus 117

4.8 km/h aus SSW

4.1 C

12.3 C

13.2 C

12.3 C

0 W/m

0.00 mm

14:55

13.2 C

1018.2 hpa

53 %

6.4 km/h aus 117

11.3 km/h aus SSW

3.8 C

12.2 C

13.1 C

12.3 C

0 W/m

0.00 mm

15:00

12.9 C

1018.1 hpa

53 %

1.6 km/h aus 116

8.0 km/h aus WSW

3.6 C

12.0 C

12.9 C

12.0 C

0 W/m

0.00 mm

15:05

12.8 C

1018.1 hpa

56 %

3.2 km/h aus 117

11.3 km/h aus SSW

4.3 C

12.0 C

12.8 C

12.0 C

0 W/m

0.00 mm

15:10

12.9 C

1018.1 hpa

58 %

3.2 km/h aus 117

8.0 km/h aus SSW

4.8 C

12.1 C

12.9 C

12.1 C

0 W/m

0.00 mm

15:15

12.8 C

1018.0 hpa

60 %

6.4 km/h aus 117

17.7 km/h aus S

5.2 C

11.8 C

12.6 C

12.1 C

0 W/m

0.00 mm

15:20

12.6 C

1018.0 hpa

56 %

4.8 km/h aus 117

9.7 km/h aus S

4.0 C

11.8 C

12.6 C

11.8 C

0 W/m

0.00 mm

15:25

12.7 C

1018.0 hpa

57 %

1.6 km/h aus 118

6.4 km/h aus S

4.4 C

11.9 C

12.7 C

11.9 C

0 W/m

0.00 mm

15:30

12.6 C

1017.9 hpa

54 %

4.8 km/h aus 116

9.7 km/h aus SW

3.5 C

11.8 C

12.6 C

11.8 C

0 W/m

0.00 mm

15:35

12.8 C

1017.9 hpa

54 %

4.8 km/h aus 117

9.7 km/h aus SW

3.7 C

11.9 C

12.8 C

11.9 C

0 W/m

0.00 mm

15:40

12.9 C

1017.9 hpa

54 %

3.2 km/h aus 117

8.0 km/h aus SW

3.8 C

12.1 C

12.9 C

12.1 C

0 W/m

0.00 mm

15:45

13.1 C

1017.8 hpa

54 %

4.8 km/h aus 116

9.7 km/h aus WNW

4.0 C

12.2 C

13.1 C

12.2 C

0 W/m

0.00 mm

15:50

13.1 C

1017.8 hpa

52 %

4.8 km/h aus 117

9.7 km/h aus W

3.4 C

12.1 C

13.1 C

12.1 C

0 W/m

0.00 mm

15:55

13.2 C

1017.8 hpa

56 %

3.2 km/h aus 117

8.0 km/h aus W

4.6 C

12.3 C

13.2 C

12.3 C

0 W/m

0.00 mm

16:00

13.2 C

1017.6 hpa

54 %

4.8 km/h aus 117

9.7 km/h aus WSW

4.1 C

12.3 C

13.2 C

12.3 C

0 W/m

0.00 mm

16:05

13.2 C

1017.6 hpa

55 %

3.2 km/h aus 117

8.0 km/h aus W

4.4 C

12.3 C

13.2 C

12.3 C

0 W/m

0.00 mm

16:10

13.4 C

1017.6 hpa

55 %

0.0 km/h aus 117

4.8 km/h aus W

4.5 C

12.5 C

13.4 C

12.5 C

0 W/m

0.00 mm

16:15

13.7 C

1017.5 hpa

55 %

1.6 km/h aus 117

4.8 km/h aus W

4.8 C

12.8 C

13.7 C

12.8 C

0 W/m

0.00 mm

16:20

13.8 C

1017.5 hpa

52 %

4.8 km/h aus 117

9.7 km/h aus SSW

4.1 C

12.8 C

13.8 C

12.8 C

0 W/m

0.00 mm

16:25

13.4 C

1017.5 hpa

53 %

3.2 km/h aus 117

8.0 km/h aus SW

4.0 C

12.5 C

13.4 C

12.5 C

0 W/m

0.00 mm

16:30

13.4 C

1017.2 hpa

54 %

1.6 km/h aus 118

8.0 km/h aus SW

4.3 C

12.4 C

13.4 C

12.4 C

0 W/m

0.00 mm

16:35

13.4 C

1017.2 hpa

56 %

3.2 km/h aus 117

6.4 km/h aus SW

4.8 C

12.6 C

13.4 C

12.6 C

0 W/m

0.00 mm

16:40

13.2 C

1017.2 hpa

54 %

4.8 km/h aus 117

16.1 km/h aus WSW

4.1 C

12.3 C

13.2 C

12.3 C

0 W/m

0.00 mm

16:45

13.1 C

1017.1 hpa

53 %

3.2 km/h aus 117

9.7 km/h aus SW

3.7 C

12.1 C

13.1 C

12.1 C

0 W/m

0.00 mm

16:50

13.8 C

1017.1 hpa

56 %

6.4 km/h aus 117

16.1 km/h aus S

5.2 C

13.0 C

13.8 C

13.0 C

0 W/m

0.00 mm

16:55

13.8 C

1017.1 hpa

55 %

6.4 km/h aus 117

16.1 km/h aus SSW

4.9 C

12.9 C

13.8 C

12.9 C

0 W/m

0.00 mm

17:00

13.5 C

1017.0 hpa

55 %

4.8 km/h aus 116

9.7 km/h aus SSW

4.6 C

12.6 C

13.5 C

12.6 C

0 W/m

0.00 mm

17:05

13.3 C

1017.0 hpa

54 %

4.8 km/h aus 117

8.0 km/h aus SSW

4.2 C

12.4 C

13.3 C

12.4 C

0 W/m

0.00 mm

17:10

13.2 C

1017.0 hpa

60 %

3.2 km/h aus 117

8.0 km/h aus SSW

5.6 C

12.5 C

13.2 C

12.5 C

0 W/m

0.00 mm

17:15

13.1 C

1016.8 hpa

58 %

1.6 km/h aus 117

4.8 km/h aus SSW

5.0 C

12.3 C

13.1 C

12.3 C

0 W/m

0.00 mm

17:20

13.1 C

1016.8 hpa

54 %

1.6 km/h aus 117

4.8 km/h aus SSW

4.0 C

12.2 C

13.1 C

12.2 C

0 W/m

0.00 mm

17:25

13.2 C

1016.8 hpa

56 %

0.0 km/h aus 117

3.2 km/h aus SSW

4.6 C

12.3 C

13.2 C

12.3 C

0 W/m

0.00 mm

17:30

13.4 C

1016.6 hpa

58 %

3.2 km/h aus 116

6.4 km/h aus SSW

5.3 C

12.7 C

13.4 C

12.7 C

0 W/m

0.00 mm

17:35

13.3 C

1016.6 hpa

54 %

1.6 km/h aus 118

6.4 km/h aus S

4.2 C

12.4 C

13.3 C

12.4 C

0 W/m

0.00 mm

17:40

13.3 C

1016.6 hpa

54 %

1.6 km/h aus 117

4.8 km/h aus S

4.2 C

12.4 C

13.3 C

12.4 C

0 W/m

0.00 mm

17:45

13.2 C

1016.5 hpa

53 %

0.0 km/h aus 115

3.2 km/h aus S

3.8 C

12.3 C

13.2 C

12.3 C

0 W/m

0.00 mm

17:50

13.8 C

1016.5 hpa

57 %

1.6 km/h aus 116

6.4 km/h aus S

5.4 C

12.9 C

13.8 C

12.9 C

0 W/m

0.00 mm

17:55

14.1 C

1016.5 hpa

52 %

1.6 km/h aus 116

9.7 km/h aus S

4.3 C

13.1 C

14.1 C

13.1 C

0 W/m

0.00 mm

18:00

14.3 C

1016.1 hpa

55 %

3.2 km/h aus 117

6.4 km/h aus S

5.4 C

13.4 C

14.3 C

13.4 C

0 W/m

0.00 mm

18:05

14.1 C

1016.1 hpa

51 %

1.6 km/h aus 116

4.8 km/h aus S

4.1 C

13.1 C

14.1 C

13.1 C

0 W/m

0.00 mm

18:10

14.0 C

1016.1 hpa

52 %

0.0 km/h aus 116

3.2 km/h aus S

4.3 C

13.0 C

14.0 C

13.0 C

0 W/m

0.00 mm

18:15

13.9 C

1016.1 hpa

53 %

0.0 km/h aus 116

3.2 km/h aus S

4.5 C

13.0 C

13.9 C

13.0 C

0 W/m

0.00 mm

18:20

13.8 C

1016.1 hpa

54 %

0.0 km/h aus 116

4.8 km/h aus S

4.7 C

12.9 C

13.8 C

12.9 C

0 W/m

0.00 mm

18:25

13.7 C

1016.1 hpa

53 %

0.0 km/h aus 117

3.2 km/h aus S

4.3 C

12.8 C

13.7 C

12.8 C

0 W/m

0.00 mm

18:30

13.7 C

1016.0 hpa

53 %

1.6 km/h aus 117

3.2 km/h aus S

4.3 C

12.7 C

13.7 C

12.7 C

0 W/m

0.00 mm

18:35

13.6 C

1016.0 hpa

53 %

0.0 km/h aus 117

3.2 km/h aus S

4.2 C

12.7 C

13.6 C

12.7 C

0 W/m

0.00 mm

18:40

13.7 C

1016.0 hpa

55 %

1.6 km/h aus 117

6.4 km/h aus NNE

4.8 C

12.8 C

13.7 C

12.8 C

0 W/m

0.00 mm

18:45

13.7 C

1015.8 hpa

54 %

3.2 km/h aus 116

6.4 km/h aus NNE

4.5 C

12.7 C

13.7 C

12.7 C

0 W/m

0.00 mm

18:50

13.5 C

1015.8 hpa

55 %

0.0 km/h aus 116

3.2 km/h aus NNE

4.6 C

12.6 C

13.5 C

12.6 C

0 W/m

0.00 mm

18:55

13.4 C

1015.8 hpa

55 %

1.6 km/h aus 116

8.0 km/h aus NNE

4.6 C

12.6 C

13.4 C

12.6 C

0 W/m

0.00 mm

19:00

13.3 C

1015.6 hpa

54 %

3.2 km/h aus 117

8.0 km/h aus NNE

4.2 C

12.4 C

13.3 C

12.4 C

0 W/m

0.00 mm

19:05

13.2 C

1015.6 hpa

55 %

3.2 km/h aus 116

8.0 km/h aus NNE

4.4 C

12.3 C

13.2 C

12.3 C

0 W/m

0.00 mm

19:10

13.2 C

1015.6 hpa

56 %

1.6 km/h aus 117

4.8 km/h aus NNE

4.6 C

12.3 C

13.2 C

12.3 C

0 W/m

0.00 mm

19:15

13.1 C

1015.5 hpa

56 %

1.6 km/h aus 117

6.4 km/h aus NNE

4.5 C

12.2 C

13.1 C

12.2 C

0 W/m

0.00 mm

19:20

13.1 C

1015.5 hpa

56 %

3.2 km/h aus 117

8.0 km/h aus NNE

4.5 C

12.2 C

13.1 C

12.2 C

0 W/m

0.00 mm

19:25

12.9 C

1015.5 hpa

56 %

3.2 km/h aus 116

8.0 km/h aus NNE

4.4 C

12.1 C

12.9 C

12.1 C

0 W/m

0.00 mm

19:30

12.8 C

1015.3 hpa

58 %

3.2 km/h aus 115

6.4 km/h aus NNE

4.7 C

12.0 C

12.8 C

12.0 C

0 W/m

0.00 mm

19:35

12.7 C

1015.3 hpa

58 %

1.6 km/h aus 117

4.8 km/h aus NNE

4.6 C

11.9 C

12.7 C

11.9 C

0 W/m

0.00 mm

19:40

12.4 C

1015.3 hpa

60 %

1.6 km/h aus 118

3.2 km/h aus NNE

4.9 C

11.8 C

12.4 C

11.8 C

0 W/m

0.00 mm

19:45

12.3 C

1015.1 hpa

59 %

1.6 km/h aus 117

4.8 km/h aus NNE

4.5 C

11.6 C

12.3 C

11.6 C

0 W/m

0.00 mm

19:50

12.2 C

1015.1 hpa

60 %

1.6 km/h aus 117

4.8 km/h aus NNE

4.6 C

11.5 C

12.2 C

11.5 C

0 W/m

0.00 mm

19:55

11.9 C

1015.1 hpa

60 %

3.2 km/h aus 117

6.4 km/h aus NNE

4.4 C

11.3 C

11.9 C

11.3 C

0 W/m

0.00 mm

20:00

11.8 C

1015.0 hpa

60 %

3.2 km/h aus 117

4.8 km/h aus NNE

4.3 C

11.2 C

11.8 C

11.2 C

0 W/m

0.00 mm

20:05

11.7 C

1015.0 hpa

61 %

3.2 km/h aus 116

9.7 km/h aus NNE

4.4 C

11.1 C

11.7 C

11.1 C

0 W/m

0.00 mm

20:10

11.5 C

1015.0 hpa

62 %

3.2 km/h aus 116

6.4 km/h aus NNE

4.5 C

10.9 C

11.5 C

10.9 C

0 W/m

0.00 mm

20:15

11.4 C

1014.8 hpa

62 %

1.6 km/h aus 117

6.4 km/h aus NNE

4.4 C

10.9 C

11.4 C

10.9 C

0 W/m

0.00 mm

20:20

11.3 C

1014.8 hpa

63 %

3.2 km/h aus 117

8.0 km/h aus NNE

4.5 C

10.8 C

11.3 C

10.8 C

0 W/m

0.00 mm

20:25

11.3 C

1014.8 hpa

63 %

3.2 km/h aus 116

8.0 km/h aus NNE

4.5 C

10.8 C

11.3 C

10.8 C

0 W/m

0.00 mm

20:30

11.3 C

1014.6 hpa

63 %

3.2 km/h aus 117

8.0 km/h aus NNE

4.5 C

10.8 C

11.3 C

10.8 C

0 W/m

0.00 mm

20:35

11.2 C

1014.6 hpa

64 %

4.8 km/h aus 116

11.3 km/h aus NE

4.6 C

10.6 C

11.1 C

10.7 C

0 W/m

0.00 mm

20:40

11.2 C

1014.6 hpa

63 %

3.2 km/h aus 116

8.0 km/h aus NE

4.4 C

10.7 C

11.2 C

10.7 C

0 W/m

0.00 mm

20:45

11.1 C

1014.5 hpa

64 %

4.8 km/h aus 117

9.7 km/h aus NE

4.6 C

10.6 C

11.1 C

10.7 C

0 W/m

0.00 mm

20:50

11.1 C

1014.5 hpa

64 %

3.2 km/h aus 116

11.3 km/h aus NE

4.5 C

10.6 C

11.1 C

10.6 C

0 W/m

0.00 mm

20:55

11.0 C

1014.5 hpa

64 %

4.8 km/h aus 116

9.7 km/h aus NE

4.4 C

10.5 C

10.9 C

10.6 C

0 W/m

0.00 mm

21:00

10.9 C

1014.4 hpa

65 %

4.8 km/h aus 117

8.0 km/h aus NE

4.6 C

10.4 C

10.9 C

10.5 C

0 W/m

0.00 mm

21:05

10.8 C

1014.4 hpa

65 %

4.8 km/h aus 116

8.0 km/h aus NE

4.5 C

10.4 C

10.8 C

10.4 C

0 W/m

0.00 mm

21:10

10.7 C

1014.4 hpa

66 %

3.2 km/h aus 117

8.0 km/h aus NE

4.6 C

10.3 C

10.7 C

10.3 C

0 W/m

0.00 mm

21:15

10.7 C

1014.2 hpa

66 %

3.2 km/h aus 115

8.0 km/h aus NE

4.6 C

10.3 C

10.7 C

10.3 C

0 W/m

0.00 mm

21:20

10.6 C

1014.2 hpa

66 %

4.8 km/h aus 116

9.7 km/h aus NE

4.5 C

10.1 C

10.5 C

10.2 C

0 W/m

0.00 mm

21:25

10.6 C

1014.2 hpa

66 %

3.2 km/h aus 117

8.0 km/h aus NE

4.5 C

10.2 C

10.6 C

10.2 C

0 W/m

0.00 mm

21:30

10.4 C

1014.1 hpa

67 %

4.8 km/h aus 117

9.7 km/h aus NE

4.6 C

10.0 C

10.3 C

10.1 C

0 W/m

0.00 mm

21:35

10.3 C

1014.1 hpa

68 %

4.8 km/h aus 117

8.0 km/h aus NE

4.7 C

9.9 C

10.2 C

10.1 C

0 W/m

0.00 mm

21:40

10.2 C

1014.1 hpa

68 %

4.8 km/h aus 116

9.7 km/h aus NE

4.6 C

9.8 C

10.1 C

9.9 C

0 W/m

0.00 mm

21:45

10.1 C

1014.0 hpa

69 %

3.2 km/h aus 118

8.0 km/h aus NE

4.7 C

9.8 C

10.1 C

9.8 C

0 W/m

0.00 mm

21:50

10.1 C

1014.0 hpa

69 %

3.2 km/h aus 117

8.0 km/h aus NE

4.6 C

9.8 C

10.1 C

9.8 C

0 W/m

0.00 mm

21:55

9.9 C

1014.0 hpa

70 %

3.2 km/h aus 116

6.4 km/h aus NE

4.7 C

9.7 C

9.9 C

9.7 C

0 W/m

0.00 mm

22:00

9.9 C

1013.9 hpa

70 %

3.2 km/h aus 117

8.0 km/h aus NE

4.7 C

9.7 C

9.9 C

9.7 C

0 W/m

0.00 mm

22:05

9.9 C

1013.9 hpa

70 %

3.2 km/h aus 117

6.4 km/h aus NE

4.7 C

9.7 C

9.9 C

9.7 C

0 W/m

0.00 mm

22:10

9.9 C

1013.9 hpa

70 %

3.2 km/h aus 117

8.0 km/h aus NE

4.7 C

9.7 C

9.9 C

9.7 C

0 W/m

0.00 mm

22:15

9.8 C

1013.7 hpa

70 %

3.2 km/h aus 116

8.0 km/h aus NE

4.6 C

9.6 C

9.8 C

9.6 C

0 W/m

0.00 mm

22:20

9.8 C

1013.7 hpa

70 %

3.2 km/h aus 117

9.7 km/h aus NE

4.6 C

9.6 C

9.8 C

9.6 C

0 W/m

0.00 mm

22:25

9.8 C

1013.7 hpa

70 %

3.2 km/h aus 117

8.0 km/h aus NE

4.6 C

9.6 C

9.8 C

9.6 C

0 W/m

0.00 mm

22:30

9.7 C

1013.5 hpa

70 %

3.2 km/h aus 116

8.0 km/h aus NE

4.5 C

9.5 C

9.7 C

9.5 C

0 W/m

0.00 mm

22:35

9.8 C

1013.5 hpa

69 %

3.2 km/h aus 117

6.4 km/h aus NE

4.4 C

9.6 C

9.8 C

9.6 C

0 W/m

0.00 mm

22:40

9.6 C

1013.5 hpa

70 %

3.2 km/h aus 117

8.0 km/h aus NE

4.4 C

9.4 C

9.6 C

9.4 C

0 W/m

0.00 mm

22:45

9.6 C

1013.5 hpa

70 %

1.6 km/h aus 116

6.4 km/h aus ENE

4.3 C

9.3 C

9.6 C

9.3 C

0 W/m

0.00 mm

22:50

9.6 C

1013.5 hpa

70 %

1.6 km/h aus 118

4.8 km/h aus ENE

4.3 C

9.3 C

9.6 C

9.3 C

0 W/m

0.00 mm

22:55

9.5 C

1013.5 hpa

69 %

1.6 km/h aus 117

6.4 km/h aus ENE

4.1 C

9.3 C

9.5 C

9.3 C

0 W/m

0.00 mm

23:00

9.4 C

1013.4 hpa

70 %

3.2 km/h aus 117

8.0 km/h aus ENE

4.2 C

9.2 C

9.4 C

9.2 C

0 W/m

0.00 mm

23:05

9.4 C

1013.4 hpa

69 %

3.2 km/h aus 116

9.7 km/h aus ESE

4.0 C

9.2 C

9.4 C

9.2 C

0 W/m

0.00 mm

23:10

9.5 C

1013.4 hpa

69 %

4.8 km/h aus 117

14.5 km/h aus ENE

4.1 C

9.0 C

9.2 C

9.3 C

0 W/m

0.00 mm

23:15

9.6 C

1013.3 hpa

68 %

4.8 km/h aus 117

11.3 km/h aus ENE

3.9 C

9.0 C

9.3 C

9.3 C

0 W/m

0.00 mm

23:20

9.5 C

1013.3 hpa

68 %

4.8 km/h aus 117

9.7 km/h aus ENE

3.9 C

8.9 C

9.2 C

9.2 C

0 W/m

0.00 mm

23:25

9.6 C

1013.3 hpa

68 %

4.8 km/h aus 115

9.7 km/h aus NE

3.9 C

9.0 C

9.3 C

9.3 C

0 W/m

0.00 mm

23:30

9.6 C

1013.2 hpa

67 %

4.8 km/h aus 116

9.7 km/h aus ENE

3.7 C

9.0 C

9.3 C

9.3 C

0 W/m

0.00 mm

23:35

9.6 C

1013.2 hpa

67 %

3.2 km/h aus 117

11.3 km/h aus ENE

3.7 C

9.3 C

9.6 C

9.3 C

0 W/m

0.00 mm

23:40

9.6 C

1013.2 hpa

67 %

3.2 km/h aus 117

6.4 km/h aus ENE

3.7 C

9.3 C

9.6 C

9.3 C

0 W/m

0.00 mm

23:45

9.6 C

1013.0 hpa

67 %

3.2 km/h aus 116

6.4 km/h aus ENE

3.7 C

9.3 C

9.6 C

9.3 C

0 W/m

0.00 mm

23:50

9.5 C

1013.0 hpa

68 %

3.2 km/h aus 117

8.0 km/h aus ENE

3.9 C

9.2 C

9.5 C

9.2 C

0 W/m

0.00 mm

23:55

9.4 C

1013.0 hpa

67 %

3.2 km/h aus 116

8.0 km/h aus ENE

3.6 C

9.2 C

9.4 C

9.2 C

0 W/m

0.00 mm